When you browse on this site, cookies collect data to enhance your experience and personalize the content and advertising you see.
Visit our Privacy Policy to learn more. By continuing to use the site, you agree to this use of cookies and data.
  • Em Portugal
  • Lista de países
  • Para 7 dias
  • Temperatura da água
  • Mapas de satélite
  • Mapa do tempo
  • Widgets de tempo
  • user-avatar
    Iniciar Sessão

    Previsão horária em Natitingou

    Hoje, 19 Fevereiro, Terça-feira

    Tempo Temperatura Precipitação Vento Pressão Humidade
    00:00 +29°C° 0 mm 2 m/s 716 mmHg 13%
    01:00 +28°C° 0 mm 2 m/s 716 mmHg 13%
    02:00 +28°C° 0 mm 2 m/s 716 mmHg 13%
    03:00 +27°C° 0 mm 3 m/s 716 mmHg 12%
    04:00 +27°C° 0 mm 3 m/s 716 mmHg 12%
    05:00 +27°C° 0 mm 3 m/s 716 mmHg 12%
    06:00 +27°C° 0 mm 3 m/s 716 mmHg 12%
    07:00 +28°C° 0 mm 3 m/s 717 mmHg 12%
    08:00 +30°C° 0 mm 3 m/s 717 mmHg 11%
    09:00 +32°C° 0 mm 4 m/s 718 mmHg 11%
    10:00 +35°C° 0 mm 3 m/s 717 mmHg 10%
    11:00 +37°C° 0 mm 3 m/s 717 mmHg 9%
    12:00 +39°C° 0 mm 2 m/s 717 mmHg 7%
    13:00 +40°C° 0 mm 2 m/s 716 mmHg 7%
    14:00 +41°C° 0 mm 2 m/s 716 mmHg 7%
    15:00 +42°C° 0 mm 1 m/s 715 mmHg 7%
    16:00 +39°C° 0 mm 1 m/s 715 mmHg 8%
    17:00 +36°C° 0 mm 1 m/s 714 mmHg 9%
    18:00 +34°C° 0 mm 1 m/s 714 mmHg 10%
    19:00 +33°C° 0 mm 1 m/s 715 mmHg 10%
    20:00 +32°C° 0 mm 1 m/s 715 mmHg 11%
    21:00 +31°C° 0 mm 1 m/s 716 mmHg 11%
    22:00 +31°C° 0 mm 2 m/s 716 mmHg 11%
    23:00 +30°C° 0 mm 2 m/s 716 mmHg 11%

    Amanhã, 20 Fevereiro, Quarta-feira

    Tempo Temperatura Precipitação Vento Pressão Humidade
    00:00 +30°C° 0 mm 2 m/s 716 mmHg 11%
    01:00 +29°C° 0 mm 2 m/s 716 mmHg 11%
    02:00 +28°C° 0 mm 2 m/s 715 mmHg 11%
    03:00 +28°C° 0 mm 2 m/s 715 mmHg 11%
    04:00 +27°C° 0 mm 1 m/s 715 mmHg 13%
    05:00 +27°C° 0 mm 1 m/s 715 mmHg 15%
    06:00 +26°C° 0 mm 1 m/s 716 mmHg 16%
    07:00 +28°C° 0 mm 1 m/s 716 mmHg 22%
    08:00 +31°C° 0 mm 2 m/s 717 mmHg 27%
    09:00 +35°C° 0 mm 2 m/s 718 mmHg 32%
    10:00 +37°C° 0 mm 2 m/s 718 mmHg 27%
    11:00 +40°C° 0 mm 1 m/s 718 mmHg 21%
    12:00 +42°C° 0 mm 1 m/s 718 mmHg 16%
    13:00 +43°C° 0 mm 1 m/s 717 mmHg 14%
    14:00 +40°C° 0 mm 0 m/s 716 mmHg 13%
    15:00 +41°C° 0 mm 0 m/s 716 mmHg 12%
    16:00 +39°C° 0 mm 0 m/s 715 mmHg 13%
    17:00 +36°C° 0 mm 0 m/s 715 mmHg 15%
    18:00 +36°C° 0 mm 1 m/s 715 mmHg 16%
    19:00 +35°C° 0 mm 1 m/s 716 mmHg 16%
    20:00 +34°C° 0 mm 1 m/s 716 mmHg 17%
    21:00 +32°C° 0 mm 1 m/s 717 mmHg 17%
    22:00 +32°C° 0 mm 1 m/s 717 mmHg 16%
    23:00 +31°C° 0 mm 1 m/s 717 mmHg 14%

    Depois de amanhã, 21 Fevereiro, Quinta-feira

    Tempo Temperatura Precipitação Vento Pressão Humidade
    00:00 +30°C° 0 mm 1 m/s 717 mmHg 12%
    01:00 +30°C° 0 mm 1 m/s 716 mmHg 12%
    02:00 +29°C° 0 mm 1 m/s 716 mmHg 12%
    03:00 +28°C° 0 mm 1 m/s 716 mmHg 12%
    04:00 +28°C° 0 mm 1 m/s 716 mmHg 12%
    05:00 +27°C° 0 mm 1 m/s 716 mmHg 13%
    06:00 +26°C° 0 mm 1 m/s 717 mmHg 13%
    07:00 +29°C° 0 mm 2 m/s 718 mmHg 12%
    08:00 +32°C° 0 mm 2 m/s 719 mmHg 11%
    09:00 +36°C° 0 mm 2 m/s 720 mmHg 10%
    10:00 +37°C° 0 mm 2 m/s 719 mmHg 9%
    11:00 +39°C° 0 mm 3 m/s 719 mmHg 8%
    12:00 +42°C° 0 mm 3 m/s 718 mmHg 7%
    13:00 +42°C° 0 mm 3 m/s 718 mmHg 7%
    14:00 +42°C° 0 mm 2 m/s 717 mmHg 7%
    15:00 +42°C° 0 mm 2 m/s 716 mmHg 6%
    16:00 +40°C° 0 mm 2 m/s 716 mmHg 7%
    17:00 +37°C° 0 mm 1 m/s 716 mmHg 8%
    18:00 +36°C° 0 mm 1 m/s 716 mmHg 8%
    19:00 +34°C° 0 mm 1 m/s 716 mmHg 9%
    20:00 +33°C° 0 mm 1 m/s 717 mmHg 9%
    21:00 +32°C° 0 mm 1 m/s 718 mmHg 9%
    22:00 +31°C° 0 mm 1 m/s 718 mmHg 9%
    23:00 +31°C° 0 mm 1 m/s 718 mmHg 10%

    22 Fevereiro, Sexta-feira

    Tempo Temperatura Precipitação Vento Pressão Humidade
    00:00 +31°C° 0 mm 1 m/s 717 mmHg 10%
    01:00 +30°C° 0 mm 1 m/s 717 mmHg 11%
    02:00 +29°C° 0 mm 1 m/s 717 mmHg 11%
    03:00 +28°C° 0 mm 1 m/s 716 mmHg 12%
    04:00 +27°C° 0 mm 1 m/s 717 mmHg 12%
    05:00 +27°C° 0 mm 1 m/s 717 mmHg 12%
    06:00 +27°C° 0 mm 1 m/s 717 mmHg 12%
    07:00 +29°C° 0 mm 1 m/s 718 mmHg 12%
    08:00 +32°C° 0 mm 2 m/s 719 mmHg 12%
    09:00 +36°C° 0 mm 2 m/s 719 mmHg 12%
    10:00 +38°C° 0 mm 2 m/s 719 mmHg 10%
    11:00 +39°C° 0 mm 3 m/s 718 mmHg 8%
    12:00 +42°C° 0 mm 3 m/s 718 mmHg 6%
    13:00 +42°C° 0 mm 3 m/s 717 mmHg 6%
    14:00 +42°C° 0 mm 3 m/s 716 mmHg 6%
    15:00 +43°C° 0 mm 3 m/s 715 mmHg 6%
    16:00 +40°C° 0 mm 2 m/s 715 mmHg 7%
    17:00 +38°C° 0 mm 2 m/s 715 mmHg 7%
    18:00 +36°C° 0 mm 2 m/s 715 mmHg 8%
    19:00 +35°C° 0 mm 2 m/s 716 mmHg 9%
    20:00 +34°C° 0 mm 2 m/s 716 mmHg 10%
    21:00 +31°C° 0 mm 2 m/s 717 mmHg 10%
    22:00 +31°C° 0 mm 2 m/s 717 mmHg 11%
    23:00 +30°C° 0 mm 2 m/s 716 mmHg 11%

    23 Fevereiro, Sábado

    Tempo Temperatura Precipitação Vento Pressão Humidade
    00:00 +30°C° 0 mm 2 m/s 716 mmHg 11%
    01:00 +29°C° 0 mm 2 m/s 716 mmHg 12%
    02:00 +28°C° 0 mm 1 m/s 715 mmHg 12%
    03:00 +27°C° 0 mm 1 m/s 715 mmHg 13%
    04:00 +24°C° 0 mm 0 m/s 715 mmHg 13%
    05:00 +24°C° 0 mm 0 m/s 716 mmHg 14%
    06:00 +23°C° 0 mm 0 m/s 716 mmHg 14%
    07:00 +26°C° 0 mm 0 m/s 717 mmHg 13%
    08:00 +31°C° 0 mm 1 m/s 718 mmHg 11%
    09:00 +34°C° 0 mm 1 m/s 719 mmHg 9%
    10:00 +36°C° 0 mm 1 m/s 718 mmHg 8%
    11:00 +39°C° 0 mm 2 m/s 718 mmHg 6%
    12:00 +40°C° 0 mm 2 m/s 717 mmHg 5%
    13:00 +41°C° 0 mm 2 m/s 716 mmHg 5%
    14:00 +41°C° 0 mm 2 m/s 715 mmHg 5%
    15:00 +41°C° 0 mm 2 m/s 715 mmHg 5%
    16:00 +39°C° 0 mm 2 m/s 715 mmHg 6%
    17:00 +37°C° 0 mm 2 m/s 715 mmHg 7%
    18:00 +35°C° 0 mm 2 m/s 714 mmHg 8%
    19:00 +34°C° 0 mm 2 m/s 715 mmHg 8%
    20:00 +32°C° 0 mm 1 m/s 715 mmHg 9%
    21:00 +30°C° 0 mm 1 m/s 716 mmHg 9%
    22:00 +30°C° 0 mm 1 m/s 716 mmHg 9%
    23:00 +29°C° 0 mm 2 m/s 715 mmHg 10%

    24 Fevereiro, Domingo

    Tempo Temperatura Precipitação Vento Pressão Humidade
    00:00 +29°C° 0 mm 2 m/s 715 mmHg 10%
    01:00 +28°C° 0 mm 2 m/s 715 mmHg 10%
    02:00 +27°C° 0 mm 2 m/s 714 mmHg 10%
    03:00 +26°C° 0 mm 2 m/s 714 mmHg 11%
    04:00 +26°C° 0 mm 1 m/s 714 mmHg 11%
    05:00 +25°C° 0 mm 1 m/s 715 mmHg 11%
    06:00 +24°C° 0 mm 1 m/s 715 mmHg 11%
    07:00 +27°C° 0 mm 1 m/s 716 mmHg 10%
    08:00 +30°C° 0 mm 1 m/s 717 mmHg 8%
    09:00 +31°C° 0 mm 0 m/s 718 mmHg 7%
    10:00 +34°C° 0 mm 0 m/s 718 mmHg 6%
    11:00 +37°C° 0 mm 0 m/s 717 mmHg 5%
    12:00 +40°C° 0 mm 0 m/s 717 mmHg 4%
    13:00 +42°C° 0 mm 1 m/s 716 mmHg 4%
    14:00 +41°C° 0 mm 1 m/s 715 mmHg 4%
    15:00 +41°C° 0 mm 1 m/s 715 mmHg 5%
    16:00 +39°C° 0 mm 1 m/s 715 mmHg 5%
    17:00 +37°C° 0 mm 2 m/s 714 mmHg 6%
    18:00 +35°C° 0 mm 2 m/s 714 mmHg 6%
    19:00 +34°C° 0 mm 2 m/s 715 mmHg 7%
    20:00 +31°C° 0 mm 2 m/s 715 mmHg 7%
    21:00 +30°C° 0 mm 2 m/s 715 mmHg 7%
    22:00 +30°C° 0 mm 1 m/s 715 mmHg 7%
    23:00 +29°C° 0 mm 1 m/s 715 mmHg 7%
    Mostrar mais